San Angelo, TX

6:44 AM CDT on March 23, 2017 (GMT -0500)
San Angelo Regional-Mathis

Weather History for KSJT - March, 2013

Change the Weather History Date:

Monday, March 18, 2013

  Actual Average Record
Temperature  
Mean Temperature 64 °F 58 °F  
Max Temperature 78 °F 72 °F 94 °F (1908)
Min Temperature 50 °F 45 °F 26 °F (1965)
Degree Days  
Heating Degree Days 1 8  
Month to date heating degree days 117 175  
Since 1 July heating degree days 1719 2136  
Cooling Degree Days 0 1  
Month to date cooling degree days 31 15  
Year to date cooling degree days 43 20  
Growing Degree Days 14 (Base 50)    
Moisture  
Dew Point 31 °F    
Average Humidity 34    
Maximum Humidity 50    
Minimum Humidity 18    
Precipitation  
Precipitation 0.00 in 0.04 in 1.22 in (2008)
Month to date precipitation T 0.89  
Year to date precipitation 1.82 3.17  
Snow  
Snow 0.00 in 0.00 in T in (1958)
Month to date snowfall 0.0 0.1  
Since 1 July snowfall 2.8 2.2  
Snow Depth 0.00 in    
Sea Level Pressure  
Sea Level Pressure 29.83 in    
Wind  
Wind Speed 8 mph (NNW)    
Max Wind Speed 16 mph    
Max Gust Speed 18 mph    
Visibility 10 miles    
Events      
T = Trace of Precipitation, MM = Missing Value Source: NWS Daily Summary

Daily Weather History Graph

Daily Weather History Graph

Search for Another Location

Airport or City:

Trip Planner

Search our weather history database for the weather conditions in past years. The results will help you decide how hot, cold, wet, or windy it might be!

Date:

Astronomy

Mar. 18, 2013 Rise Set
Actual Time 7:47 AM CDT 7:52 PM CDT
Civil Twilight 7:23 AM CDT 8:16 PM CDT
Nautical Twilight 6:55 AM CDT 8:44 PM CDT
Astronomical Twilight 6:27 AM CDT 9:13 PM CDT
Moon 12:10 PM CDT (3/18) 1:32 AM CDT (3/18)
Length of Visible Light 12h 52m
Length of Day
12h 04m
Waxing Crescent, 41% of the Moon is Illuminated
Mar 18
Waxing Crescent
Mar 19
First Quarter
Mar 27
Full
Apr 2
Last Quarter
Apr 10
New

Hourly Weather History & Observations

Time (CDT) Temp. Dew Point Humidity Pressure Visibility Wind Dir Wind Speed Gust Speed Precip Events Conditions
12:51 AM 62.1 °F 28.9 °F 29% 29.70 in 10.0 mi SSW 5.8 mph - N/A   Clear
1:51 AM 60.1 °F 30.0 °F 32% 29.70 in 10.0 mi South 5.8 mph - N/A   Clear
2:51 AM 55.9 °F 28.9 °F 36% 29.70 in 10.0 mi SSW 6.9 mph - N/A   Clear
3:51 AM 55.9 °F 28.9 °F 36% 29.70 in 10.0 mi WSW 3.5 mph - N/A   Clear
4:51 AM 54.0 °F 28.0 °F 37% 29.70 in 10.0 mi WSW 5.8 mph - N/A   Clear
5:51 AM 54.0 °F 26.1 °F 34% 29.72 in 10.0 mi West 9.2 mph - N/A   Clear
6:51 AM 54.0 °F 26.1 °F 34% 29.75 in 10.0 mi West 10.4 mph - N/A   Clear
7:51 AM 52.0 °F 25.0 °F 35% 29.79 in 10.0 mi West 9.2 mph - N/A   Clear
8:51 AM 62.1 °F 19.0 °F 19% 29.82 in 10.0 mi West 12.7 mph - N/A   Clear
9:51 AM 66.9 °F 21.9 °F 18% 29.87 in 10.0 mi NNW 9.2 mph - N/A   Clear
10:51 AM 69.1 °F 30.9 °F 24% 29.89 in 10.0 mi North 15.0 mph - N/A   Clear
11:51 AM 70.0 °F 33.1 °F 26% 29.90 in 10.0 mi North 10.4 mph - N/A   Clear
12:51 PM 72.0 °F 36.0 °F 27% 29.91 in 10.0 mi North 10.4 mph - N/A   Clear
2:51 PM 77.0 °F 37.0 °F 24% 29.88 in 10.0 mi North 8.1 mph - N/A   Clear
3:51 PM 77.0 °F 35.1 °F 22% 29.88 in 10.0 mi NNE 6.9 mph - N/A   Clear
4:51 PM 75.9 °F 34.0 °F 22% 29.89 in 10.0 mi Variable 3.5 mph - N/A   Clear
5:51 PM 77.0 °F 35.1 °F 22% 29.88 in 10.0 mi NNW 6.9 mph - N/A   Clear
6:51 PM 75.9 °F 30.9 °F 19% 29.88 in 10.0 mi North 6.9 mph - N/A   Clear
7:51 PM 69.1 °F 37.9 °F 32% 29.89 in 10.0 mi ENE 8.1 mph - N/A   Clear
8:51 PM 63.0 °F 37.0 °F 38% 29.90 in 10.0 mi East 8.1 mph - N/A   Clear
9:51 PM 62.1 °F 37.9 °F 41% 29.91 in 10.0 mi East 9.2 mph - N/A   Clear
10:51 PM 57.0 °F 37.0 °F 47% 29.93 in 10.0 mi ESE 6.9 mph - N/A   Clear
11:51 PM 54.0 °F 36.0 °F 51% 29.94 in 10.0 mi ENE 4.6 mph - N/A   Clear